Torna al catalogo

TOMORROW-S4

AttivoComunicazioniVLEO
NORAD 62386·PAYLOAD·🇺🇸 United States

Lanciato Dec 21, 2024 da Vandenberg Space Force Base

Loading…

Prossimi Passaggi (prossime 24 ore)

TLE

AggiornatoSource: Space-Track

Epoca: Sep 14, 2026, 03:32 UTC

1 62386U 24247K   26257.14788124  .00005488  00000-0  19458-3 0  9996
2 62386  44.9813 165.7552 0004489 198.2329 161.8394 15.30161196 96578

Traccia TOMORROW-S4 in tempo reale con AllMySat

Download on the App Store